Lid_Strength_Index
5 8 9 7 7 7 7 8 9 7 6 8 8 8 7 6 6 6 6 5 5 5 4 4 4 4 4 4 5 5 5 5 5 5 5 5 6 6 7 7 7 7 7 7
7 9 7 6 6 7 8 9 9 7 6 7 7 8 6 5 6 6 6 6 5 5 5 5 5 5 5 5 5 5 5 5 5 5 5 5 6 7 7 7 7 7 7 7
9 7 6 7 8 8 9 9 9 9 7 6 8 9 7 6 5 5 6 5 5 5 6 6 6 5 5 5 5 5 5 5 6 6 6 6 6 7 7 7 8 8 8 8
8 6 7 8 9 8 10 7 8 9 10 12 7 13 9 7 6 6 6 6 5 5 5 5 6 6 5 5 4 5 5 6 6 6 6 7 6 7 8 7 8 8 8 8
9 8 8 9 8 7 9 7 8 8 10 10 10 12 10 7 8 6 7 6 6 5 5 6 6 5 5 4 5 5 5 6 7 7 6 7 7 7 8 8 8 8 8 9
8 6 7 7 7 7 7 8 9 9 10 15 11 12 11 9 8 7 6 6 6 5 5 5 5 5 5 4 5 5 6 7 7 7 7 7 7 8 8 8 8 8 8 8
9 8 6 6 8 7 8 10 16 17 16 16 10 11 10 7 7 7 6 6 5 5 4 5 5 5 5 5 5 5 6 8 8 8 8 7 7 8 8 9 9 8 8 8
12 13 8 6 8 9 9 10 15 19 17 15 10 13 10 7 6 6 6 5 5 5 4 5 5 5 5 5 5 6 7 8 8 8 8 8 8 8 8 9 8 8 8 8
12 11 7 7 6 7 9 12 8 13 12 16 13 10 8 7 7 7 6 6 5 5 5 4 4 4 5 5 5 6 7 8 8 8 8 8 8 8 9 8 8 8 7 8
11 14 9 8 7 7 8 7 13 15 21 20 14 12 13 10 8 7 7 6 5 4 4 4 4 4 5 8 5 6 6 7 8 8 8 8 8 8 8 8 8 8 7 7
10 11 11 9 10 10 10 11 11 11 14 20 19 16 7 9 8 7 7 6 5 4 4 4 4 5 5 6 7 5 6 7 8 8 8 8 8 8 8 8 8 7 7 7
9 11 14 11 7 7 8 9 10 15 16 14 15 16 7 6 6 6 6 7 5 4 4 4 5 4 6 7 7 8 6 9 7 7 7 7 8 8 9 9 8 7 8 8
10 13 15 12 9 8 10 9 9 9 11 16 18 16 6 6 6 6 6 6 5 4 4 4 5 5 7 7 8 9 8 9 8 9 8 8 8 8 9 8 8 8 8 8
9 11 13 16 12 11 14 12 10 12 17 15 14 12 9 7 7 6 5 5 5 5 5 5 5 5 7 7 9 8 8 8 8 9 10 10 10 11 9 9 10 10 9 10
9 15 12 12 10 10 11 11 11 12 11 15 14 12 9 8 7 7 6 5 6 5 6 6 7 6 7 7 8 8 8 8 8 9 9 10 11 11 10 11 11 11 10 11
8 13 11 13 11 11 12 10 10 10 10 10 10 10 6 6 5 6 6 5 6 5 5 6 7 7 7 7 8 7 7 7 8 9 9 9 9 10 10 10 10 10 11 11
9 11 12 15 10 10 14 12 10 9 8 9 11 8 6 7 7 6 5 5 5 5 5 6 6 7 7 6 7 7 7 7 7 8 8 8 8 9 9 9 9 9 10 10
9 11 11 15 12 19 10 7 7 8 8 7 7 7 6 6 5 5 4 5 5 4 4 4 5 6 6 5 6 6 6 7 7 7 7 7 7 8 8 8 9 9 9 9
7 9 13 16 15 12 10 8 8 9 9 6 7 7 6 5 5 5 4 5 4 4 3 4 4 4 5 5 5 6 6 7 7 8 7 7 7 8 8 8 8 8 9 9
7 8 12 13 17 17 10 7 7 7 13 6 6 6 6 6 10 7 4 4 5 3 4 4 4 4 4 5 5 6 6 7 8 8 7 6 6 7 8 8 8 8 9 10
11 11 14 15 16 14 8 6 6 14 12 6 6 6 6 8 8 5 4 4 4 3 3 4 4 4 4 4 5 6 6 7 7 6 6 6 6 7 7 7 8 8 10 11
11 13 13 13 15 16 7 7 11 8 6 6 5 5 6 5 5 4 4 4 4 4 4 3 4 4 4 4 5 5 6 6 5 5 6 6 7 7 8 8 8 9 10 12
13 9 11 11 12 8 7 6 5 5 6 5 6 5 5 5 5 4 5 4 3 3 3 3 3 4 4 4 4 5 5 5 5 6 6 7 7 8 8 9 9 10 11 12
8 6 9 9 7 6 5 5 4 5 6 5 5 5 5 5 4 5 4 4 3 3 3 3 3 4 4 4 4 4 4 4 5 6 6 7 8 8 8 8 9 10 11 11
9 8 8 8 7 6 5 5 4 5 4 5 4 5 5 4 4 4 4 4 3 3 3 3 4 4 4 4 4 4 5 5 6 6 7 7 8 9 8 9 9 10 10 10
7 8 10 10 6 6 6 4 3 4 5 4 4 4 4 4 5 4 4 3 3 3 3 4 4 4 4 4 5 5 5 6 6 7 7 8 8 9 9 9 12 12 12 12